AO-07 1 07530U 74089B 23355.56739888 -.00000013 00000-0 21003-3 0 9999 2 07530 101.9665 343.6338 0012438 65.8891 44.0408 12.53670390246659 UO-11 1 14781U 84021B 23355.40760313 .00002881 00000-0 33735-3 0 9991 2 14781 97.6823 325.4385 0006975 315.3628 44.7025 14.85773513121935 AO-16 1 20439U 90005D 23355.56552956 .00000341 00000-0 14087-3 0 9994 2 20439 98.8958 350.7435 0011115 20.6539 94.7325 14.33237356771741 LO-19 1 20442U 90005G 23355.81369316 .00000332 00000-0 13709-3 0 9992 2 20442 98.8667 336.5679 0011623 354.0803 6.0242 14.33393866772289 AO-27 1 22825U 93061C 23355.61100873 .00000206 00000-0 96662-4 0 9993 2 22825 98.8170 41.2908 0007539 236.7816 123.2644 14.30398067577085 IO-26 1 22826U 93061D 23355.56654925 .00000232 00000-0 10607-3 0 9993 2 22826 98.8116 41.1067 0008267 221.3734 138.6822 14.30769225577355 FO-29 1 24278U 96046B 23355.48104218 .00000028 00000-0 67781-4 0 9997 2 24278 98.5589 308.7457 0349219 291.3276 65.0925 13.53167790350266 NOAA-15 1 25338U 98030A 23355.79935421 .00000277 00000-0 13284-3 0 9996 2 25338 98.5883 21.4935 0011258 123.1728 237.0533 14.26456898332003 GO-32 1 25397U 98043D 23355.83714713 .00000199 00000-0 10657-3 0 9993 2 25397 98.8972 315.1614 0000959 9.5588 350.5608 14.23958872322250 ISS 1 25544U 98067A 23355.71058934 .00017521 00000-0 30729-3 0 9995 2 25544 51.6406 119.6587 0002362 41.7601 99.6210 15.50640663430878 NO-44 1 26931U 01043C 23355.58223948 .00000346 00000-0 16266-3 0 9995 2 26931 67.0520 72.9039 0005516 261.4596 98.5880 14.31072731160399 SO-50 1 27607U 02058C 23355.49882256 .00002228 00000-0 32130-3 0 9995 2 27607 64.5565 50.3747 0046658 181.7192 178.3759 14.78088141129902 CO-55 1 27844U 03031E 23355.58038705 .00000606 00000-0 28823-3 0 9994 2 27844 98.6785 0.1279 0008883 307.0415 52.9950 14.23005547 62386 CO-57 1 27848U 03031J 23355.51715739 .00000508 00000-0 24745-3 0 9990 2 27848 98.6818 0.4028 0009006 324.0481 36.0090 14.22484431 62135 RS-22 1 27939U 03042A 23355.83079020 .00002137 00000-0 37210-3 0 9995 2 27939 98.2651 144.5943 0011159 263.2360 233.1476 14.69109031 82080 NOAA-18 1 28654U 05018A 23355.85476696 .00000304 00000-0 18645-3 0 9992 2 28654 98.8939 69.1909 0013983 205.1119 154.9374 14.13082348958076 CO-58 1 28895U 05043F 23355.34898773 .00002983 00000-0 54517-3 0 9998 2 28895 98.1759 126.3800 0015779 198.4277 161.6357 14.66581937968237 CO-65 1 32785U 08021C 23355.49749896 .00006035 00000-0 56691-3 0 9994 2 32785 97.7314 317.9440 0010957 193.7091 166.3833 14.94256048848775 AAUSAT2 1 32788U 08021F 23355.48347207 .00019717 00000-0 12378-2 0 9990 2 32788 97.5797 331.5966 0009221 74.1339 286.0906 15.09286052851304 CO-66 1 32791U 08021J 23354.82499803 .00008767 00000-0 71242-3 0 9990 2 32791 97.6819 322.7701 0010116 137.1138 223.0876 14.99789440849687 RS-30 1 32953U 08025A 23355.56520176 .00000019 00000-0 63468-4 0 9998 2 32953 82.5022 200.5574 0019660 133.9250 226.3456 12.43133331706792 PRISM 1 33493U 09002B 23355.53541897 .00016031 00000-0 94459-3 0 9998 2 33493 98.2320 23.7586 0015268 131.6858 228.5679 15.11593333811994 NOAA-19 1 33591U 09005A 23355.85258975 .00000272 00000-0 17057-3 0 9996 2 33591 99.0754 44.5530 0014725 76.2929 283.9881 14.12890158766447 SRMSAT 1 37841U 11058D 23354.78740862 .00000494 00000-0 12553-3 0 9993 2 37841 19.9700 161.7334 0011848 282.8665 163.3046 14.11002411629190 HRBE 1 37855U 11061F 23355.17695605 .00062097 00000-0 13228-2 0 9996 2 37855 101.6944 64.6399 0090268 182.8126 177.2609 15.40396207665203 RS-40 1 38735U 12041C 23355.59474119 .00000007 00000-0 -17491-4 0 9996 2 38735 82.4761 281.2246 0016272 248.5834 111.3510 12.42598672516991 ZACUBE-1 1 39417U 13066B 23355.44826502 .00006851 00000-0 75340-3 0 9991 2 39417 97.7119 311.0299 0054256 32.4176 328.0354 14.86836731545006 Delfi-N3xt 1 39428U 13066N 23355.29742535 .00010661 00000-0 14509-2 0 9992 2 39428 97.8379 273.7962 0105147 307.9067 51.2671 14.75112644539696 GOMX-1 1 39430U 13066Q 23355.60552671 .00002443 00000-0 41911-3 0 9997 2 39430 97.7558 235.6836 0144321 99.6643 262.0897 14.62906618536749 LO-74 1 39440U 13066AA 23355.41765480 .00004443 00000-0 55154-3 0 9997 2 39440 97.7949 298.4684 0073843 136.5505 224.1560 14.81174110541859 AO-73 1 39444U 13066AE 23355.43943267 .00009558 00000-0 99542-3 0 9995 2 39444 97.6974 313.7858 0051671 16.1915 344.0939 14.89025873543489 SPROUT 1 39770U 14029E 23355.34462826 .00052692 00000-0 28314-2 0 9999 2 39770 98.0009 129.9070 0004562 39.8378 320.3187 15.14691431520351 DTUSAT-2 1 40030U 14033W 23354.79390260 .00007946 00000-0 72369-3 0 9997 2 40030 97.9877 298.1853 0011707 40.0299 320.1781 14.95387653515860 EO-80 1 40032U 14033Y 23355.36997820 .00007797 00000-0 70951-3 0 9997 2 40032 97.9869 298.7877 0011461 37.3351 322.8664 14.95427524515928 HODOYOSHI-1 1 40299U 14070B 23355.75978691 .00018827 00000-0 48083-3 0 9998 2 40299 97.1701 53.9601 0008276 332.8187 27.2625 15.39487034507606 GRIFEX 1 40379U 15003D 23355.50765961 .00170616 00000-0 13582-2 0 9991 2 40379 99.0841 341.2635 0041968 339.8799 20.0801 15.69481387492420 XW-2C 1 40906U 15049H 23355.81856694 .00020618 00000-0 65314-3 0 9992 2 40906 97.4903 4.3396 0008722 209.6339 150.4410 15.32726135457072 XW-2D 1 40907U 15049J 23355.58376409 .00026316 00000-0 74514-3 0 9991 2 40907 97.4871 5.3204 0007772 197.5517 162.5459 15.36234248457174 LILACSAT-2 1 40908U 15049K 23355.77817655 .00008845 00000-0 38255-3 0 9995 2 40908 97.5275 358.7070 0011323 254.2765 105.7223 15.22633387456318 XW-2E 1 40909U 15049L 23355.81728146 .00096961 00000-0 12379-2 0 9991 2 40909 97.4358 14.9386 0006445 136.1290 224.0479 15.58923222458141 XW-2F 1 40910U 15049M 23355.59066386 .00092475 00000-0 12344-2 0 9997 2 40910 97.4462 13.9559 0006848 140.9810 219.1941 15.57746263457963 XW-2B 1 40911U 15049N 23355.80965446 .00026351 00000-0 75467-3 0 9993 2 40911 97.4847 5.8503 0007802 198.4798 161.6163 15.35877558457082 DCBB 1 40912U 15049P 23355.06745172 .00294145 00000-0 15637-2 0 9994 2 40912 97.3900 19.7914 0006088 99.6871 260.5084 15.79661400458673 IO-86 1 40931U 15052B 23353.67103008 .00001354 00000-0 96992-4 0 9993 2 40931 5.9980 202.2142 0012643 40.9393 319.1683 14.77526050444715 ChubuSat-2 1 41338U 16012B 23355.52097003 .00006695 00000-0 44273-3 0 9992 2 41338 31.0019 98.5183 0011688 246.2948 113.6462 15.05912904430622 ChubuSat-3 1 41339U 16012C 23355.54372326 .00005992 00000-0 39919-3 0 9999 2 41339 31.0086 95.9845 0011743 252.5373 107.3980 15.05588395430524 Horyu-4 1 41340U 16012D 23355.51890268 .00012016 00000-0 68499-3 0 9998 2 41340 31.0044 55.3760 0010184 322.8517 37.1416 15.11520199431053 e-st@r-II 1 41459U 16025D 23355.72706512 .00073831 00000-0 12617-2 0 9996 2 41459 98.1572 218.0560 0073363 157.4010 203.0497 15.47996347421714 Lapan A3 1 41603U 16040E 23355.56874725 .00003709 00000-0 15699-3 0 9999 2 41603 97.1538 12.4773 0013013 22.4502 337.7302 15.23701462416014 Pratham 1 41783U 16059A 23355.61567339 .00001160 00000-0 22657-3 0 9995 2 41783 97.8520 18.2653 0031759 225.2258 134.6361 14.64379939386402 CAS-2T 1 41847U 16066G 23355.14486261 .00001507 00000-0 23099-3 0 9992 2 41847 98.4847 62.6904 0356798 356.2710 3.5831 14.40458701373710 CAS-4B 1 42759U 17034B 23355.74093473 .00014274 00000-0 62416-3 0 9997 2 42759 43.0124 149.8725 0012385 248.9169 111.0356 15.21855974360167 CAS-4A 1 42761U 17034D 23355.75426249 .00016723 00000-0 72785-3 0 9993 2 42761 43.0109 148.2774 0012754 248.6357 111.3132 15.21913381360179 NIUSat 1 42766U 17036B 23355.60911709 .00071339 00000-0 10095-2 0 9993 2 42766 97.1318 24.3023 0007644 122.7541 237.4452 15.56243673361574 Aalto 1 1 42775U 17036L 23355.60444504 .00035704 00000-0 73934-3 0 9995 2 42775 97.1324 21.1984 0008844 133.3878 226.8110 15.45643345361364 URSA MAIOR 1 42776U 17036M 23355.58268896 .00048076 00000-0 85584-3 0 9991 2 42776 97.1316 23.3130 0008403 125.9835 234.2198 15.49953823361485 Max Valier Sat 1 42778U 17036P 23355.60753442 .00045711 00000-0 76744-3 0 9993 2 42778 97.1321 27.2403 0007334 126.3404 233.8527 15.51631112361655 Pegasus 1 42784U 17036V 23355.66424595 .00495486 96404-4 15729-2 0 9990 2 42784 97.1104 34.2357 0002781 103.3554 256.8030 15.91182965362228 VENTA 1 1 42791U 17036AC 23355.11044031 .00559039 12680-3 16112-2 0 9996 2 42791 97.1082 34.9947 0001995 106.1727 253.9768 15.93067704362201 D-SAT 1 42794U 17036AF 23354.93382897 .00007305 00000-0 54864-3 0 9994 2 42794 97.4814 338.7208 0113779 33.5746 327.2619 14.97794244353897 TechnoSat 1 42829U 17042E 23355.76312121 .00003525 00000-0 32742-3 0 9996 2 42829 97.3788 182.0800 0012145 320.9444 39.0899 14.94920988350502 AO-91 1 43017U 17073E 23355.57742534 .00007870 00000-0 52029-3 0 9991 2 43017 97.6032 232.6166 0222665 168.4445 192.2008 14.89500437329046 AO-92 1 43137U 18004AC 23355.21767297 .00231815 00000-0 13943-2 0 9992 2 43137 97.3047 79.2833 0002262 189.1554 170.9672 15.77068664331411 TianYi 2 1 43155U 18008A 23355.80577324 .00040496 00000-0 11439-2 0 9992 2 43155 97.2719 44.7607 0010334 9.4032 350.7404 15.36193676327341 Zhou Enlai 1 43156U 18008B 23355.80574275 .00048165 00000-0 12705-2 0 9993 2 43156 97.2764 45.3169 0008212 11.5512 348.5920 15.38299434327294 TianYi 6 1 43158U 18008D 23355.64723288 .00028539 00000-0 93471-3 0 9990 2 43158 97.2819 40.8915 0009346 18.6189 341.5393 15.31580120327029 S-Net D 1 43186U 18014G 23355.27500941 .00006881 00000-0 52501-3 0 9991 2 43186 97.6051 255.4125 0010322 253.0177 106.9917 15.02278813321623 S-Net B 1 43187U 18014H 23355.27659995 .00007002 00000-0 53411-3 0 9993 2 43187 97.6056 255.3491 0011277 248.7418 111.2602 15.02272437321629 S-Net A 1 43188U 18014J 23355.74255323 .00006478 00000-0 49437-3 0 9992 2 43188 97.6064 255.9062 0011084 247.2662 112.7391 15.02284587321697 S-Net C 1 43189U 18014K 23355.61207447 .00006706 00000-0 51147-3 0 9998 2 43189 97.6072 255.6879 0013002 241.1951 118.7969 15.02276714320224 CubeBel-1 1 43666U 18083E 23355.77830535 .00129849 00000-0 14910-2 0 9991 2 43666 97.3542 30.7367 0006061 137.6409 222.5318 15.61603234286208 Changshagaoxin 1 43669U 18083H 23355.55834776 .00067511 00000-0 11788-2 0 9998 2 43669 97.3586 23.4800 0005293 144.4343 215.7262 15.50442165285808 Ten-Koh 1 43677U 18084G 23355.38953783 .00003779 00000-0 35617-3 0 9993 2 43677 98.0362 139.2024 0013676 248.4267 111.5496 14.94371787280002 PO-101 1 43678U 18084H 23355.74301246 .00002350 00000-0 22444-3 0 9993 2 43678 98.0455 143.9239 0008218 260.5119 99.5171 14.94277037280269 QO-100 1 43700U 18090A 23355.56229878 .00000154 00000-0 00000-0 0 9997 2 43700 0.0183 25.7118 0002046 278.4505 13.9245 1.00270882 18567 MinXSS-2 1 43758U 18099A 23355.12801437 .00012174 00000-0 86305-3 0 9998 2 43758 97.5815 55.5946 0017933 207.0607 152.9686 15.04794379275823 AO-95 1 43770U 18099N 23355.07610643 .00007926 00000-0 59982-3 0 9993 2 43770 97.5739 51.9517 0012747 249.2145 110.7715 15.02517421275643 RANGE-B 1 43772U 18099Q 23355.15504338 .00011849 00000-0 83559-3 0 9993 2 43772 97.5532 55.1219 0006459 152.1548 208.0025 15.05111906275751 RANGE-A 1 43773U 18099R 23355.60670802 .00004984 00000-0 40199-3 0 9999 2 43773 97.5373 49.5480 0015132 210.1490 149.8864 15.00237375275646 MOVE-II 1 43780U 18099Y 23355.07346372 .00017017 00000-0 10841-2 0 9991 2 43780 97.5485 55.5120 0007068 229.0469 131.0148 15.08793550275862 SNUSat 2 1 43782U 18099AA 23355.14358128 .00007268 00000-0 55726-3 0 9992 2 43782 97.5430 52.0927 0015525 179.9423 180.1807 15.02012742275678 SnugLite 1 43784U 18099AC 23355.14569378 .00008093 00000-0 60829-3 0 9992 2 43784 97.5246 51.5852 0004740 174.0548 186.0735 15.02818357275724 ITASat 1 1 43786U 18099AE 23355.15212918 .00006750 00000-0 52323-3 0 9998 2 43786 97.5434 52.5886 0017308 226.6045 133.3740 15.01601297275681 EAGLET 1 1 43790U 18099AJ 23355.13535801 .00004976 00000-0 39526-3 0 9998 2 43790 97.5592 52.9811 0017183 218.3732 141.6271 15.00800957275409 ESEO 1 43792U 18099AL 23355.11707279 .00003582 00000-0 30335-3 0 9999 2 43792 97.5473 50.7464 0011241 206.3209 153.7444 14.98567371275372 CSIM 1 43793U 18099AM 23355.12762091 .00017387 00000-0 11004-2 0 9993 2 43793 97.5564 57.1214 0014082 204.8925 155.1626 15.08969917275723 JO-97 1 43803U 18099AX 23355.16530992 .00009384 00000-0 68782-3 0 9996 2 43803 97.5501 53.0834 0010546 184.1751 175.9388 15.03695261275769 Suomi 100 1 43804U 18099AY 23355.14432749 .00008127 00000-0 60306-3 0 9994 2 43804 97.5553 52.8630 0016690 186.0964 174.0061 15.03206213275753 CHOMPTT 1 43855U 18104G 23355.59244661 .00057161 00000-0 81381-3 0 9998 2 43855 85.0233 37.3148 0005872 341.5951 18.5096 15.56109182279548 ISAT 1 43879U 18111D 23355.25412231 .00011975 00000-0 82676-3 0 9996 2 43879 97.6325 257.3398 0011850 247.1579 112.8397 15.05865186272458 UWE-4 1 43880U 18111E 23355.29041191 .00012233 00000-0 85460-3 0 9997 2 43880 97.6226 257.7813 0016226 258.6358 101.3046 15.05370686272483 Sparrow 1 43881U 18111F 23355.47918326 .00012598 00000-0 86031-3 0 9990 2 43881 97.6392 259.1608 0009254 297.4566 62.5720 15.06283142272546 Lume 1 1 43908U 18111AJ 23355.60364393 .00176263 00000-0 12071-2 0 9996 2 43908 97.1025 238.4605 0003989 195.2325 164.8820 15.74226696278547 AISTechSat 3 1 44103U 19018AB 23355.77924818 .00078582 00000-0 10108-2 0 9997 2 44103 97.2231 54.5721 0004781 313.2148 46.8709 15.58801703263535 AISat 1 1 44104U 19018AC 23355.54907680 .00047832 00000-0 59344-3 0 9991 2 44104 97.3698 91.7735 0028960 289.8781 69.9355 15.59372481264786 Prox-1 1 44339U 19036A 23355.05735270 .00011091 00000-0 20926-2 0 9992 2 44339 24.0005 293.7818 0009787 168.9185 191.1525 14.62626892238950 SONATE 1 44400U 19038Q 23354.94384935 .00018601 00000-0 71051-3 0 9998 2 44400 97.7028 337.3132 0019847 24.9929 335.2265 15.26499476246677 BeeSat 9 1 44412U 19038AC 23355.49704920 .00062919 00000-0 13411-2 0 9998 2 44412 97.6857 344.2216 0012351 11.4502 348.7024 15.44621083246910 JAISAT-1 1 44419U 19038F 23355.55273557 .00055743 00000-0 11906-2 0 9993 2 44419 97.6840 345.3985 0011493 8.5799 351.5643 15.44603523247307 Taurus 1 1 44530U 19059C 23355.56028273 .00007310 00000-0 18051-2 0 9999 2 44530 98.5637 106.6477 0012477 236.3996 123.6009 14.52333682225812 Duchifat 3 1 44854U 19089C 23355.50497354 .00013765 00000-0 82278-3 0 9999 2 44854 36.9610 48.4986 0006739 69.4778 290.6690 15.10460306221190 OPS-SAT 1 44878U 19092F 23355.49915184 .00056898 00000-0 10908-2 0 9997 2 44878 97.4603 188.1823 0006848 176.5095 183.6204 15.47802252222626 TO-108 1 44881U 19093C 23355.55815733 .00001566 00000-0 19849-3 0 9994 2 44881 97.8475 70.7312 0014504 181.4343 178.6832 14.83092271216567 FloripaSat 1 1 44885U 19093G 23355.79115340 .00006407 00000-0 70658-3 0 9995 2 44885 97.8566 74.9862 0013285 178.7277 181.3976 14.87775765216827 RS-44 1 44909U 19096E 23355.62443281 .00000023 00000-0 38400-4 0 9993 2 44909 82.5210 223.3927 0218383 108.6572 253.8375 12.79724707186136 BY70-2 1 45857U 20042B 23355.78597837 .00044934 00000-0 34212-2 0 9997 2 45857 97.9232 77.5960 0006241 98.0706 262.1226 15.01904949187571 UPMSat 2 1 46276U 20061E 23355.17164798 .00014807 00000-0 54683-3 0 9994 2 46276 97.3247 59.1303 0002400 68.0581 292.0913 15.27840641182795 AmicalSat 1 46287U 20061R 23355.13519500 .00024651 00000-0 94117-3 0 9991 2 46287 97.3779 58.6577 0002760 128.5445 231.6041 15.26631404182160 SALSAT 1 46495U 20068K 23355.40551504 .00007703 00000-0 47543-3 0 9999 2 46495 97.7945 305.9186 0013879 196.6914 163.3859 15.10123440177301 CAPE 3 1 47309U 21002A 23355.50130818 .00155802 00000-0 13357-2 0 9994 2 47309 60.6671 46.4120 0026857 43.1225 317.1980 15.68130453163345 AO-109 1 47311U 21002C 23355.48528572 .00074932 00000-0 10361-2 0 9998 2 47311 60.6759 50.8540 0027252 45.2638 315.0676 15.56204041163241 ExoCube 2 1 47319U 21002L 23355.48901711 .00068415 00000-0 10070-2 0 9992 2 47319 60.6735 54.1600 0028010 45.5187 314.8198 15.54522991163153 UVSQ-SAT 1 47438U 21006AB 23355.65105907 .00028691 00000-0 90801-3 0 9993 2 47438 97.3586 50.7627 0008989 131.3146 228.8871 15.32684858161279 YUSAT 1 1 47439U 21006AC 23355.14884997 .00049251 00000-0 12928-2 0 9999 2 47439 97.3589 52.1035 0008119 127.4563 232.7422 15.38445717161312 SOMP 2b 1 47445U 21006AJ 23355.62213948 .00025231 00000-0 83094-3 0 9996 2 47445 97.3555 49.6389 0009065 136.7277 223.4678 15.31430994161225 IDEASSat 1 47458U 21006AX 23355.12190460 .00027079 00000-0 92654-3 0 9992 2 47458 97.3653 49.9197 0008444 137.8063 222.3829 15.30185009161110 CubeSX-Sirius-HSE 1 47951U 21022V 23355.64459155 .00017081 00000-0 82924-3 0 9995 2 47951 97.4788 250.3026 0018627 48.0952 312.1867 15.18383177151426 CubeSX-HSE 1 47952U 21022W 23355.54309301 .00017561 00000-0 85057-3 0 9995 2 47952 97.4784 250.2683 0018447 47.6763 312.6030 15.18460911151414 KSU-Cubesat 1 47954U 21022Y 23355.65134760 .00019329 00000-0 89515-3 0 9991 2 47954 97.4798 251.0921 0017686 45.4408 314.8267 15.20006809151197 GRBAlpha 1 47959U 21022AD 23355.65080267 .00017309 00000-0 83613-3 0 9997 2 47959 97.4791 250.4907 0018366 47.7087 312.5700 15.18559619150258 Orbicraft-Zorkiy 1 47960U 21022AE 23355.62899587 .00017889 00000-0 83478-3 0 9991 2 47960 97.4826 251.2339 0017805 46.1865 314.0838 15.19758500150970 STECCO 1 47962U 21022AG 23355.67888725 .00045531 00000-0 14974-2 0 9999 2 47962 97.4797 255.9178 0011918 30.8890 329.3050 15.31318624150617 MO-110 1 47964U 21022AJ 23355.52847076 .00048861 00000-0 15299-2 0 9999 2 47964 97.4816 256.7166 0013221 25.8852 334.3048 15.32861021150649 FEES 1 48082U 21022AL 23355.29952159 .00227207 00000-0 29962-2 0 9999 2 48082 97.4747 261.1756 0008006 35.5013 324.6773 15.57600321150627 TUBIN 1 48900U 21059X 23355.53296738 .00014780 00000-0 61403-3 0 9996 2 48900 97.6214 131.1936 0007982 357.9583 2.1620 15.23892085137669 IT-SPINS 1 49017U 21013G 23354.90582798 .00143813 00000-0 12692-2 0 9995 2 49017 51.5818 230.0347 0003613 196.7170 163.3707 15.67711937138707 LEDSAT 1 49069U 21073D 23355.16209786 .00015559 00000-0 75059-3 0 9992 2 49069 97.4625 63.1821 0021619 188.2443 171.8439 15.18570618129235 CUTE 1 49263U 21088D 23355.14057737 .00016178 00000-0 91033-3 0 9997 2 49263 97.5232 58.0351 0015465 345.1004 14.9769 15.13230348122511 TeikyoSat 4 1 49396U 21102B 23355.58002697 .00002146 00000-0 16264-3 0 9997 2 49396 97.4884 41.6129 0014242 156.2802 203.9083 15.03212806115913 Z-Sat 1 49399U 21102E 23355.63883804 .00004564 00000-0 31176-3 0 9998 2 49399 97.4596 42.9041 0021987 146.5424 213.7198 15.06457514116095 KOSEN 1 1 49402U 21102H 23355.66249256 .00006382 00000-0 40792-3 0 9997 2 49402 97.4536 43.8275 0021199 132.7004 227.6015 15.08779388116202 HO-113 1 50466U 21131B 23355.62056427 .00000893 00000-0 30209-3 0 9996 2 50466 98.5415 76.5129 0003241 307.6572 52.4321 14.39252859104319 Tevel-3 1 50988U 22002E 23355.62297684 .00044617 00000-0 12446-2 0 9999 2 50988 97.4101 62.4044 0004980 293.5584 66.5137 15.36604453107420 Tevel-8 1 50989U 22002F 23355.58584057 .00043301 00000-0 12118-2 0 9993 2 50989 97.4121 62.4460 0004893 291.7906 68.2817 15.36511002107416 Tevel-5 1 50998U 22002Q 23355.63232526 .00046054 00000-0 12244-2 0 9998 2 50998 97.4096 63.0902 0005802 284.2347 75.8253 15.38084829107470 Tevel-6 1 50999U 22002R 23355.63168061 .00046256 00000-0 12305-2 0 9993 2 50999 97.4094 63.0781 0005794 283.7907 76.2692 15.38065603107471 Tevel-1 1 51013U 22002AF 23355.63995567 .00042940 00000-0 12010-2 0 9999 2 51013 97.4095 62.3277 0004756 292.7411 67.3330 15.36531416107422 NO-116 1 51031U 22002AZ 23354.98144103 .00238281 00000-0 24239-2 0 9999 2 51031 97.4162 68.9412 0005684 268.1617 91.8991 15.64375863107727 IRIS-A 1 51044U 22002BN 23355.16739826 .00016963 00000-0 69506-3 0 9994 2 51044 97.4125 58.1085 0006072 313.1958 46.8772 15.24334015107095 Tevel-7 1 51062U 22002CG 23355.64822984 .00042430 00000-0 11855-2 0 9996 2 51062 97.4115 62.4788 0004887 291.3966 68.6756 15.36566291107427 Tevel-4 1 51063U 22002CH 23355.59892566 .00044463 00000-0 12470-2 0 9996 2 51063 97.4113 62.3851 0004841 291.7112 68.3617 15.36437766107419 Tevel-2 1 51069U 22002CP 23355.62363002 .00044917 00000-0 12522-2 0 9996 2 51069 97.4098 62.3723 0004941 293.1883 66.8840 15.36621771107420 DELFI-PQ 1 51074U 22002CU 23355.16685777 .00609759 00000-0 25810-2 0 9992 2 51074 97.4262 73.7754 0006523 286.0672 73.9879 15.83829618107977 SO-115 1 51080U 22002DA 23353.16594560 .00054300 00000-0 12230-2 0 9994 2 51080 97.4384 65.7462 0006775 322.5439 37.5335 15.43078754107260 SO-114 1 51081U 22002DB 23354.99721946 .00069210 00000-0 15151-2 0 9998 2 51081 97.4384 67.6533 0006679 314.6968 45.3736 15.43859734107552 OreSat0 1 52017U 22026K 23355.53742921 .00032258 00000-0 96371-3 0 9997 2 52017 97.5081 359.6555 0019070 134.9087 225.3707 15.34352469 98177 Planetum 1 1 52738U 22057G 23355.32208980 .00028114 00000-0 10296-2 0 9997 2 52738 97.5516 112.3390 0006760 59.7570 300.4337 15.27967018 87158 Foresail-1 1 52766U 22057AL 23354.81577585 .00016485 00000-0 67128-3 0 9996 2 52766 97.5653 112.4796 0011499 44.4403 315.7754 15.24509371 87066 SNUGLITE 2 1 52899U 22065F 23355.36633980 .00001917 00000-0 40896-3 0 9992 2 52899 98.0928 135.3897 0007696 0.4506 359.6700 14.59983514 78161 IO-117 1 53106U 22080B 23353.26709400 -.00000003 00000-0 00000-0 0 9995 2 53106 70.1425 255.3862 0008213 145.5074 214.6119 6.42557317 33647 SelfieSat 1 53951U 22057BC 23355.28013989 .00041881 00000-0 13372-2 0 9997 2 53951 97.5555 113.8352 0007363 48.6347 311.5526 15.32333669 87228 FO-118 1 54684U 22167C 23355.63215515 .00019282 00000-0 88728-3 0 9999 2 54684 97.5825 132.9947 0012496 50.3981 309.8355 15.20301486 57092 SSS-2B 1 56184U 23054G 23355.62027190 .00022174 00000-0 77320-3 0 9991 2 56184 97.3896 248.5626 0011297 91.0125 269.2410 15.29582859 38750 CIRBE 1 56188U 23054L 23355.62905881 .00039363 00000-0 12393-2 0 9993 2 56188 97.3846 248.8458 0010431 83.1879 277.0549 15.32769178 38780 INSPIRE-Sat 7 1 56211U 23054AK 23354.94767581 .00039266 00000-0 11718-2 0 9999 2 56211 97.3862 248.9176 0014074 69.6862 290.5892 15.34427460 38723 RoseyCubesat 1 1 56212U 23054AL 23355.65807048 .00039695 00000-0 11457-2 0 9998 2 56212 97.3872 249.8178 0014250 66.7347 293.5395 15.35473952 38841 SO-120 1 56992U 23084BU 23355.29229593 .00022676 00000-0 11149-2 0 9998 2 56992 97.5190 109.4603 0015205 292.1287 67.8332 15.17934855 28963 MRC-100 1 56993U 23084BV 23355.27060807 .00026874 00000-0 13000-2 0 9990 2 56993 97.5183 109.5003 0015391 292.8999 67.0610 15.18463146 28977 UmKA 1 (RS40S) 1 57172U 23091G 23355.63320292 .00006506 00000-0 45946-3 0 9990 2 57172 97.6403 44.5552 0017859 13.3417 346.8278 15.05136700 26618 CubeBel-2 (EU11S) 1 57175U 23091K 23355.61349544 .00007794 00000-0 55093-3 0 9996 2 57175 97.6416 44.4183 0016745 26.7100 333.4985 15.05051427 26602 VERONIKA 1 58261U 23174F 23355.15739731 .00017577 00000-0 96004-3 0 9992 2 58261 97.4831 67.4123 0014298 143.2849 216.9365 15.14290174 6567 KAFASAT 1 58317U 23174BP 23355.18366440 .00019562 00000-0 10197-2 0 9994 2 58317 97.4781 67.5008 0013604 123.1861 237.0678 15.15933326 6573 ENSO 1 58470U 23185J 23355.66284231 .00014900 00000-0 75005-3 0 9997 2 58470 97.4539 59.8946 0014232 178.6642 181.4632 15.17212686 3029 EIRSAT-1 1 58472U 23185L 23355.66340839 .00014619 00000-0 73671-3 0 9990 2 58472 97.4532 59.8904 0014007 179.7795 180.3447 15.17180941 3029 HADES-D 1 58567U 23174CY 23355.00952535 .00032569 00000-0 17426-2 0 9992 2 58567 97.4794 67.2848 0016075 133.9175 226.3387 15.14866297 6541 Clark sat-1 (AMBITIOUS) 1 58613U 98067WE 23353.44724344 .00043018 00000-0 72629-3 0 9996 2 58613 51.6358 130.8840 0004895 355.7748 105.0601 15.51184337 216 /EX